Regional Weather Roundup
Issued by NWS

Home | Current Version | Previous Version | Graphics & Text | Print | Product List | Glossary On
Versions: 1 2 3 4 5 6 7 8 9 10 11 12 13 14 15 16 17 18 19 20 21 22 23 24 25 26 27 28 29 30 31 32 33 34 35 36 37 38 39 40 41 42 43 44 45 46 47 48 49 50
000
ASUS43 KOAX 230802
RWRNE

WEATHER ROUNDUP FOR NEBRASKA
NATIONAL WEATHER SERVICE OMAHA NE
200 AM CST THU NOV 23 2017

NOTES: SATELLITE DATA IS BEING USED TO AUGMENT CLOUD COVER ABOVE
       12000 FEET.
       "FAIR" INDICATES FEW OR NO CLOUDS BELOW 12,000 FEET WITH NO
       SIGNIFICANT WEATHER AND/OR OBSTRUCTIONS TO VISIBILITY.


NEZ001>004-019>022-054>056-230900-
NEBRASKA PANHANDLE

CITY           SKY/WX    TMP DP  RH WIND       PRES   REMARKS
SCOTTSBLUFF    CLOUDY    41  36  82 NW8       30.17F
ALLIANCE       CLEAR     35  34  96 W10       30.14F WCI  27
CHADRON        CLEAR     39  36  89 W8        30.11F WCI  33
GORDON         FAIR      44  37  77 W9        30.09S
KIMBALL        CLOUDY    44  37  76 W9        30.20F
SIDNEY         CLOUDY    50  40  68 W13       30.18F
$$

NEZ057>060-069>072-079>082-230900-
SOUTHWEST NEBRASKA

CITY           SKY/WX    TMP DP  RH WIND       PRES   REMARKS
NORTH PLATTE   CLEAR     34  32  92 CALM      30.10F
IMPERIAL       CLOUDY    46  39  76 NW12      30.13F
LEXINGTON      CLEAR     36  32  85 W5        30.07F WCI  32
MCCOOK         CLEAR     39  35  86 SW6       30.09S WCI  35
OGALLALA       CLOUDY    50  40  67 NW15      30.12F
$$

NEZ005>010-023>029-035>040-094-230900-
NORTH CENTRAL NEBRASKA

CITY           SKY/WX    TMP DP  RH WIND       PRES   REMARKS
VALENTINE      CLEAR     40  35  83 W8        30.04F WCI  34
AINSWORTH      CLEAR     41  37  83 W8        30.04S
BROKEN BOW     CLEAR     47  36  65 NW7       30.05F
O`NEILL        CLEAR     42  37  81 W7        30.02F
ORD            CLEAR     34  31  88 W5        30.03S WCI  30
THEDFORD       CLEAR     39  35  84 W6        30.08F WCI  35
$$

NEZ041-046>049-061>064-073>077-083>087-230900-
SOUTH CENTRAL NEBRASKA

CITY           SKY/WX    TMP DP  RH WIND       PRES   REMARKS
GRAND ISLAND   CLEAR     39  34  82 W8        30.04S WCI  33
AURORA         CLEAR     40  32  73 NW9       30.02S WCI  33
HASTINGS       CLEAR     42  33  70 W7        30.04S
HEBRON         CLEAR     39  25  56 W3        30.03S
HOLDREGE       CLEAR     41  35  77 NW7       30.06F
KEARNEY        CLEAR     41  34  76 NW7       30.06S
YORK           CLEAR     39  32  75 NW13      30.02S WCI  32
$$

NEZ011>018-030>034-042>045-230900-
NORTHEAST NEBRASKA

CITY           SKY/WX    TMP DP  RH WIND       PRES   REMARKS
NORFOLK        CLEAR     37  30  75 W5        29.99S WCI  33
ALBION         CLEAR     40  32  75 NW6       30.01F
BLAIR          CLEAR     33  23  67 SW9       29.97S WCI  25
COLUMBUS       CLEAR     32  26  78 W5        30.00S WCI  27
FREMONT        CLEAR     29  22  74 CALM      29.99S
TEKAMAH        CLEAR     29  19  66 S5        29.98S WCI  24
WAYNE          CLEAR     36  30  77 CALM      29.98S
$$

NEZ050>053-065>068-078-088>093-230900-
SOUTHEAST NEBRASKA

CITY           SKY/WX    TMP DP  RH WIND       PRES   REMARKS
LINCOLN        CLEAR     39  23  52 SW3       30.02F
OMAHA EPPLEY   CLEAR     31  21  66 SE9       29.99F WCI  23
BEATRICE       CLEAR     34  23  63 S5        30.03S WCI  30
FALLS CITY     CLEAR     32  21  64 S3        30.03F
NEBRASKA CITY  CLEAR     33  24  69 SW7       30.00S WCI  27
PLATTSMOUTH    CLEAR     31  22  67 S6        29.99F WCI  26
$$

NEZ044-045-051>053-067-230900-
OMAHA AREA

CITY           SKY/WX    TMP DP  RH WIND       PRES   REMARKS
OMAHA EPPLEY   CLEAR     31  21  66 SE9       29.99F WCI  23
BLAIR          CLEAR     33  23  67 SW9       29.97S WCI  25
FREMONT        CLEAR     29  22  74 CALM      29.99S
MILLARD        CLEAR     32  24  71 CALM      29.99S
OFFUTT AFB     CLEAR     29  20  68 CALM      29.99F
PLATTSMOUTH    CLEAR     31  22  67 S6        29.99F WCI  26
WAHOO          FAIR      33  22  66 CALM      29.99S
$$



USA.gov is the U.S. government's official web portal to all federal, state and local government web resources and services.